パンスターズ彗星

C/2016 R2 ( PanSTARRS )

English version
Home page
Updated on November 7, 2017

---------------------------------------------------------------------

・ プロフィール

発見日 2016年9月7日
発見光度 19.1等
発見者 Pan-STARRS 1 telescope (Haleakala)

・ 写真集

・ 軌道要素

Epoch 2018 May 2.0 TT = JDT 2458240.5
T 2018 May  9.58496 TT                                  MPCW
q   2.6023503            (2000.0)            P               Q
z  +0.0014037      Peri.   33.19266     -0.14727691     -0.52443242
 +/-0.0000029      Node    80.56914     +0.61562027     -0.71222008
e   0.9963472      Incl.   58.22342     +0.77415838     +0.46659747
From 174 observations 2016 Aug. 30-2017 July 6, mean residual 0".4.

・ 星図

・ 光度変化

        m1 = 5.0 + 5 logΔ + 10.0 log r

---------------------------------------------------------------------

軌道要素はM.P.E.C. 2017-N58に掲載されたものです。
星図はステラナビゲータ Ver.10 (アストロアーツ) で作成したものです。
光度グラフはComet for Windowsで作成したものです。

---------------------------------------------------------------------

Copyright(C) Seiichi Yoshida (comet@aerith.net). All rights reserved.